Satellite-Ground Cal/Val Site Overpasses Predictions

Prediction of Satellite NPP Overpassing Cal/Val Site: Antarctic Dome C

Ground Cal/Val Site Location: Latitude: -75.10, Longitude: 123.35; Satellite-Ground Site NADIR distance within 100 km.

Table of predicted overpasses for the next 14.0 days since TLE Epoch: 5/21/2022
Interval Starting Time Ending Time Minimum Distance Time Minimum Distance (km)
1 05/21/2022 07:37:26 05/21/2022 07:37:54 05/21/2022 07:37:40 32.42
2 05/22/2022 07:18:40 05/22/2022 07:18:58 05/22/2022 07:18:49 77.88
3 05/24/2022 15:00:51 05/24/2022 15:01:15 05/24/2022 15:01:03 55.07
4 05/25/2022 14:42:01 05/25/2022 14:42:26 05/25/2022 14:42:13 54.00
5 05/26/2022 07:43:40 05/26/2022 07:44:01 05/26/2022 07:43:51 67.26
6 05/27/2022 07:24:47 05/27/2022 07:25:14 05/27/2022 07:25:01 41.06
7 05/29/2022 15:07:10 05/29/2022 15:07:20 05/29/2022 15:07:15 92.13
8 05/30/2022 14:48:09 05/30/2022 14:48:38 05/30/2022 14:48:23 19.10
